OBJECT D, 61738

Orbit data source: Space-Track

You're viewing an Uncataloged Satellite

Recently launched and/or uncataloged satellites may have evolving metadata. Metadata may include but not limited to: Owner, Maufacturer, Bus, Motor, and Mission.

OBJECT D, 61738 is a satellite in SSO that was launched on Mon, 04 Nov 2024 UTC via a SOYUZ-2-1B launch vehicle from the Vostochny Cosmodrome (VOSTO). Unknown objects in Earth's orbit typically refer to objects detected orbiting the Earth but have not yet been identified or cataloged. These objects could be anything from previously untracked satellites, spent rocket stages, debris from satellite collisions, or even natural meteoroids temporarily captured by Earth's gravity.

Loading next visibility...
Identifier
61738, 2024-199D
Orbit
SSO
Country
Flag of TBDTBD
Related business
Manufacturer
Sputniks
Mission
Operational Commercial Communications
Bus & Motor
CUBESAT 3U?, Unknown motor
Mass
3 kg wet, 3 kg dry
Launch date (UTC)
2024-11-04 (1 year ago)
Launch vehicle
SOYUZ-2-1B
Launch site
Vostochny Cosmodrome (VOSTO)
Object type
Unknown
Shape & HBR
Box, 0.1 m
Radar Cross Section
0.035 m², Small (<0.1 m²)

Expand to show TLE details & history
Last TLE update: 11 hours ago

TLE from 11 hours ago
0 OBJECT D
1 61738U 24199D   25295.15892147  .00003963  00000-0  35917-3 0  9999
2 61738  97.3402 144.3321 0007319 138.9824 221.1950 14.95851365 96210
Epoch: 2025-10-22T03:48Z
TLE epoch observation values (Epoch: 2025-10-22T03:48:50.815Z)
Latitude
0.00003°
Longitude
56.28383°
Altitude
586.625 km
Speed
7.565 km/s
True Right ascension
09h 37m 19s
True Declination
0° 00' 00"
Sunlit
Object was in daylight at epoch
Visualization orbit readout
Latitude
Unknown
Longitude
Unknown
Altitude
Unknown
Speed
Unknown
Apparent Right ascension
Unknown
Apparent Declination
Unknown
Sunlit
N/A
Visualization observer readout
Local Sidereal Time
09:44:03
Azimuth
Unknown
Elevation
Unknown
Doppler factor
Unknown
Orbital elements
Apogee altitude
581.817 km
Perigee altitude
571.637 km
Semi-major axis
6,954.864 km
Eccentricity
0.00073
Inclination
97.3402°
RAAN
144.3321°
Arg. of periapsis
138.9824°
True anomaly
221.1398°
Mean anomaly
221.195°
Eccentric anomaly
221.1674°
Mean motion
3.74206 °/min
Orbital period
96.2 mins
BSTAR
0.00035917
Loading maneuver chart data...
Computing Atmospheric mass density...
Loading historical data...
Loading historical data...
Loading historical data...
Loading historical data...
Loading historical data...
Loading historical data...
Loading historical data...

Documentation

Showing up to 5 results
|